Content
SEND FEEDBACK

Daily
Averages
Monthly
Summary
France

AVIGNON, FRANCE


Home > Europe > France
Elevation: 187 feet     Latitude: 44 00N     Longitude: 004 45E

WEATHER
 
SELECT A DAY
Number of Records: 167,762;   Date Range: 5/17/04 - 9/15/14
 
SHARE

PRINT THIS DATA

[ ← Previous Day ]
WEATHER ALMANAC - MAY 1, 2013
[ Next Day → ]
[ °C ]   °F
Weather ElementAverageHighLow
Temperature60.4 °F69.8 °F (4:00 pm)53.6 °F (4:00 am)
Dewpoint52.3 °F55.4 °F (12:30 am)48.2 °F (6:00 pm)
Humidity77.3 %100 % (5:30 am)46 % (6:00 pm)
Barometer30.02 in30.06 in (10:00 am)29.98 in (3:00 am)
Wind Speed3.6 mph8.1 mph (9:00 am)
Weather ElementAverage
Visibility5.8 mi
Wind DirectionESE (114 °)

Weather ElementTotal
Precipitation---
Heating Degree Days3.3 (Base 65)
Growing Degree Days11.7 (Base 50)
Averaged from 47 records on May 1, 2013
WEATHER CONDITIONS BREAKOUT
WIND DIRECTION BREAKOUT
WEATHER BY HOUR - MAY 1, 2013
[ °C ]   °F
Local TimeTemperatureDewpointHumidityBarometerVisibilityWind DirectionWind SpeedGust SpeedPrecipitationEventsConditions
12:30 AM59.0 °F55.4 °F88 %30.01 in6.2 miCalmOvercast
1:00 AM57.2 °F55.4 °F94 %30.01 in6.2 miCalmOvercast
1:30 AM57.2 °F55.4 °F94 %30.01 in6.2 miCalmOvercast
2:00 AM57.2 °F55.4 °F94 %30.01 in6.2 miCalmOvercast
2:30 AM57.2 °F55.4 °F94 %30.01 in6.2 miEast (80°)2.3 mphOvercast
3:00 AM55.4 °F53.6 °F94 %29.98 in6.2 miCalmMostly Cloudy
3:30 AM55.4 °F53.6 °F94 %29.98 in4.3 miVariable2.3 mphMostly Cloudy
4:00 AM53.6 °F51.8 °F94 %29.98 inVariable2.3 mphMostly Cloudy
4:30 AM53.6 °F51.8 °F94 %29.98 in3.1 miVariable2.3 mphMostly Cloudy
5:00 AM53.6 °F51.8 °F94 %29.98 in3.1 miCalmFogPatches of Fog
5:30 AM53.6 °F53.6 °F100 %29.98 in3.1 miCalmFogPatches of Fog
6:00 AM55.4 °F55.4 °F100 %29.98 in4.3 miWSW (250°)4.6 mphOvercast
6:30 AM55.4 °F55.4 °F100 %30.01 in5.0 miEast (80°)2.3 mphOvercast
7:00 AM55.4 °F55.4 °F100 %29.98 in5.6 miCalmOvercast
7:30 AM55.4 °F55.4 °F100 %30.01 in6.2 miEast (80°)2.3 mphOvercast
8:00 AM57.2 °F55.4 °F94 %30.01 in6.2 miEast (90°)3.5 mphOvercast
8:30 AM57.2 °F55.4 °F94 %30.01 in6.2 miSouth (170°)4.6 mphOvercast
9:00 AM57.2 °F53.6 °F88 %30.04 in6.2 miSW (220°)8.1 mphRainLight Rain
9:30 AM55.4 °F53.6 °F94 %30.04 in3.1 miSouth (180°)3.5 mphRainLight Rain
10:00 AM53.6 °F50.0 °F88 %30.06 in6.2 miSW (220°)6.9 mphRainLight Rain
10:30 AM53.6 °F51.8 °F94 %30.06 in6.2 miESE (120°)4.6 mphMostly Cloudy
11:00 AM55.4 °F51.8 °F88 %30.06 in6.2 miVariable3.5 mphMostly Cloudy
11:30 AM59.0 °F53.6 °F82 %30.04 in6.2 miENE (70°)6.9 mph
12:00 PM59.0 °F53.6 °F82 %30.06 in6.2 miENE (60°)5.8 mphMostly Cloudy
12:30 PM60.8 °F53.6 °F77 %30.04 in6.2 miNNE (20°)5.8 mph
1:00 PM62.6 °F53.6 °F72 %30.04 in6.2 miVariable3.5 mph
1:30 PM64.4 °F50.0 °F59 %30.04 in6.2 miNNW (330°)5.8 mph
2:00 PM64.4 °F53.6 °F68 %30.04 in6.2 miVariable5.8 mphPartly Cloudy
2:30 PM66.2 °F51.8 °F60 %30.04 in6.2 miNW (310°)4.6 mph
3:00 PM68.0 °F50.0 °F52 %30.04 in6.2 miWest (280°)4.6 mph
3:30 PM68.0 °F51.8 °F56 %30.04 in6.2 miNW (310°)5.8 mph
4:00 PM69.8 °F53.6 °F56 %30.04 in6.2 miVariable6.9 mph
4:30 PM69.8 °F51.8 °F53 %30.01 in6.2 miWSW (240°)5.8 mph
5:00 PM69.8 °F50.0 °F49 %30.01 in6.2 miWest (260°)8.1 mph
5:30 PM69.8 °F50.0 °F49 %30.01 in6.2 miWest (270°)8.1 mph
6:00 PM69.8 °F48.2 °F46 %30.01 in6.2 miVariable2.3 mph
6:30 PM69.8 °F48.2 °F46 %30.01 in6.2 miVariable3.5 mph
7:00 PM69.8 °F50.0 °F49 %30.01 in6.2 miSW (230°)4.6 mph
7:30 PM68.0 °F50.0 °F52 %30.01 in6.2 miWSW (250°)4.6 mph
8:00 PM66.2 °F50.0 °F56 %30.01 in6.2 miWSW (240°)4.6 mph
8:30 PM64.4 °F50.0 °F59 %30.01 in6.2 miWest (270°)5.8 mphMostly Cloudy
9:00 PM62.6 °F50.0 °F63 %30.01 in6.2 miWSW (250°)3.5 mphOvercast
9:30 PM60.8 °F50.0 °F68 %30.04 in6.2 miSW (230°)3.5 mphOvercast
10:00 PM60.8 °F50.0 °F68 %30.04 in6.2 miWSW (250°)4.6 mphMostly Cloudy
10:30 PM59.0 °F50.0 °F72 %30.04 in6.2 miVariable2.3 mphScattered Clouds
11:00 PM55.4 °F50.0 °F82 %30.04 in6.2 miCalmPartly Cloudy
11:30 PM55.4 °F50.0 °F82 %30.04 in6.2 miCalmMostly Cloudy
Hourly data recorded from LFMV, located miles away from Avignon, France







STORIES FROM OUR PARTNERS